sat.trackr.live / text

‹ back to catalog

FLOCK 4G-22

NORAD 62645 · 2025-009AN

PAYLOAD ACTIVE UNKNOWN

§ Identity

Operator
Country
US
Launch date
2025-01-14
Launch site
AFWTR
Launch vehicle
Mass (kg)
RCS (m²)

Purposes: earth_obs

External: N2YO · Heavens-Above · Gunter

§ Orbital elements

Epoch: 2026-09-18T23:49:06.001248Z

Period
94.06 min
Inclination
97.3950°
Eccentricity
0.0001470
Mean motion
15.30921700 rev/d
Perigee alt
472.1 km
Apogee alt
474.1 km
Semi-major
6,851.2 km
B*
2.6505e-4
RAAN
343.6263°
Arg perigee
7.3851°
Mean anomaly
352.7411°
Rev number
9,326

§ Raw data

FLOCK 4G-221 62645U 25009AN  26261.99243057  .00007843  00000+0  26505-3 0  99972 62645  97.3950 343.6263 0001470   7.3851 352.7411 15.30921700 93262

JSON: /api/v1/satellites/62645 · /tle

For live sub-satellite position, see the globe view (requires WebGL).

§ Visibility from observer

Set your observer location to see the next 7 days of passes ≥ 10°. The values pass through the URL so the page stays shareable.

No JS? Fill the form by hand. The geolocation button needs JavaScript.